カタログに戻る

TAURUS R/B

運用中PO
NORAD 25490·ROCKET BODY·🇺🇸 United States

打ち上げ Oct 3, 1998 から Vandenberg Space Force Base

Loading…

次のパス (今後24時間)

TLE

最新Source: Space-Track

元期: Sep 14, 2026, 12:55 UTC

1 25490U 98055B   26257.53829148  .00000387  00000-0  57867-4 0  9994
2 25490  85.0723 190.1313 0012762 293.4151  66.5721 14.71784580498090

AllMySatでTAURUS R/Bをリアルタイム追跡

Download on the App Store